TimeCDT,TemperatureF,Dew PointF,Humidity,Sea Level PressureIn,VisibilityMPH,Wind Direction,Wind SpeedMPH,Gust SpeedMPH,PrecipitationIn,Events,Conditions,WindDirDegrees,DateUTC
12:15 AM,62.6,50.0,63,30.01,10.0,Calm,Calm,-,N/A,,Overcast,0,2014-04-12 05:15:00
12:35 AM,62.6,50.0,63,30.01,10.0,Calm,Calm,-,N/A,,Overcast,0,2014-04-12 05:35:00
12:55 AM,60.8,50.0,68,30.01,10.0,Calm,Calm,-,N/A,,Scattered Clouds,0,2014-04-12 05:55:00
1:15 AM,60.8,50.0,68,30.01,10.0,Calm,Calm,-,N/A,,Partly Cloudy,0,2014-04-12 06:15:00
1:35 AM,60.8,50.0,68,30.00,10.0,Calm,Calm,-,N/A,,Mostly Cloudy,0,2014-04-12 06:35:00
1:55 AM,57.2,48.2,72,30.00,10.0,Calm,Calm,-,N/A,,Partly Cloudy,0,2014-04-12 06:55:00
2:15 AM,59.0,48.2,67,29.99,10.0,Calm,Calm,-,N/A,,Clear,0,2014-04-12 07:15:00
2:35 AM,57.2,48.2,72,29.99,9.0,Calm,Calm,-,N/A,,Scattered Clouds,0,2014-04-12 07:35:00
2:55 AM,57.2,48.2,72,29.98,9.0,Calm,Calm,-,N/A,,Mostly Cloudy,0,2014-04-12 07:55:00
3:15 AM,57.2,48.2,72,29.98,10.0,Calm,Calm,-,N/A,,Overcast,0,2014-04-12 08:15:00
3:35 AM,60.8,50.0,68,29.98,10.0,Calm,Calm,-,N/A,,Mostly Cloudy,0,2014-04-12 08:35:00
3:55 AM,60.8,48.2,63,29.98,10.0,Calm,Calm,-,N/A,,Partly Cloudy,0,2014-04-12 08:55:00
4:15 AM,60.8,50.0,68,29.97,10.0,Calm,Calm,-,N/A,,Partly Cloudy,0,2014-04-12 09:15:00
4:35 AM,62.6,50.0,63,29.97,10.0,Calm,Calm,-,N/A,,Mostly Cloudy,0,2014-04-12 09:35:00
4:55 AM,60.8,50.0,68,29.97,10.0,Calm,Calm,-,N/A,,Mostly Cloudy,0,2014-04-12 09:55:00
5:15 AM,57.2,48.2,72,29.97,10.0,Calm,Calm,-,N/A,,Partly Cloudy,0,2014-04-12 10:15:00
5:35 AM,59.0,48.2,67,29.97,7.0,Calm,Calm,-,N/A,,Clear,0,2014-04-12 10:35:00
5:55 AM,59.0,48.2,67,29.97,1.2,Calm,Calm,-,N/A,,Clear,0,2014-04-12 10:55:00
6:15 AM,60.8,50.0,68,29.96,10.0,Calm,Calm,-,N/A,,Clear,0,2014-04-12 11:15:00
6:35 AM,60.8,48.2,63,29.97,10.0,Calm,Calm,-,N/A,,Clear,0,2014-04-12 11:35:00
6:55 AM,59.0,48.2,67,29.97,10.0,Calm,Calm,-,N/A,,Clear,0,2014-04-12 11:55:00
7:15 AM,59.0,48.2,67,29.97,10.0,South,4.6,-,N/A,,Clear,180,2014-04-12 12:15:00
7:35 AM,60.8,50.0,68,29.98,10.0,South,3.5,-,N/A,,Clear,180,2014-04-12 12:35:00
7:55 AM,62.6,51.8,68,29.98,10.0,South,6.9,-,N/A,,Clear,190,2014-04-12 12:55:00
8:15 AM,64.4,51.8,64,29.98,10.0,SSE,6.9,-,N/A,,Clear,160,2014-04-12 13:15:00
8:55 AM,66.2,51.8,60,29.97,10.0,South,10.4,-,N/A,,Clear,180,2014-04-12 13:55:00
9:15 AM,66.2,53.6,64,29.97,10.0,South,9.2,-,N/A,,Clear,180,2014-04-12 14:15:00
9:35 AM,69.8,53.6,56,29.97,10.0,South,8.1,-,N/A,,Clear,180,2014-04-12 14:35:00
9:55 AM,69.8,53.6,56,29.97,10.0,South,10.4,16.1,N/A,,Clear,180,2014-04-12 14:55:00
10:15 AM,69.8,53.6,56,29.97,10.0,South,10.4,17.3,N/A,,Clear,180,2014-04-12 15:15:00
10:35 AM,69.8,53.6,56,29.96,10.0,South,9.2,18.4,N/A,,Clear,190,2014-04-12 15:35:00
10:55 AM,71.6,53.6,53,29.96,10.0,SSE,10.4,18.4,N/A,,Clear,150,2014-04-12 15:55:00
11:15 AM,71.6,53.6,53,29.96,10.0,South,15.0,24.2,N/A,,Clear,190,2014-04-12 16:15:00
11:35 AM,69.8,53.6,56,29.96,10.0,South,12.7,21.9,N/A,,Partly Cloudy,180,2014-04-12 16:35:00
11:55 AM,69.8,53.6,56,29.96,10.0,SSW,16.1,23.0,N/A,,Mostly Cloudy,200,2014-04-12 16:55:00
12:15 PM,69.8,53.6,56,29.95,10.0,South,13.8,21.9,N/A,,Mostly Cloudy,190,2014-04-12 17:15:00
12:35 PM,71.6,53.6,53,29.94,10.0,South,18.4,26.5,N/A,,Partly Cloudy,190,2014-04-12 17:35:00
12:55 PM,71.6,53.6,53,29.93,10.0,South,9.2,19.6,N/A,,Scattered Clouds,190,2014-04-12 17:55:00
1:15 PM,71.6,53.6,53,29.92,10.0,South,13.8,19.6,N/A,,Scattered Clouds,180,2014-04-12 18:15:00
1:35 PM,73.4,53.6,50,29.90,10.0,South,13.8,20.7,N/A,,Clear,170,2014-04-12 18:35:00
1:55 PM,75.2,55.4,50,29.89,10.0,SSE,9.2,17.3,N/A,,Clear,150,2014-04-12 18:55:00
2:15 PM,75.2,55.4,50,29.88,10.0,SSE,11.5,18.4,N/A,,Clear,160,2014-04-12 19:15:00
2:35 PM,75.2,53.6,47,29.88,10.0,SSE,13.8,20.7,N/A,,Clear,160,2014-04-12 19:35:00
2:55 PM,75.2,53.6,47,29.87,10.0,SSE,12.7,16.1,N/A,,Clear,150,2014-04-12 19:55:00
3:15 PM,75.2,51.8,44,29.86,10.0,South,9.2,21.9,N/A,,Clear,190,2014-04-12 20:15:00
3:35 PM,75.2,51.8,44,29.85,10.0,SSE,10.4,18.4,N/A,,Clear,160,2014-04-12 20:35:00
3:55 PM,75.2,51.8,44,29.84,10.0,SE,10.4,19.6,N/A,,Clear,140,2014-04-12 20:55:00
4:15 PM,77.0,51.8,41,29.83,10.0,South,12.7,21.9,N/A,,Clear,170,2014-04-12 21:15:00
4:35 PM,75.2,51.8,44,29.82,10.0,South,12.7,27.6,N/A,,Clear,180,2014-04-12 21:35:00
4:55 PM,77.0,51.8,41,29.81,10.0,South,10.4,26.5,N/A,,Clear,170,2014-04-12 21:55:00
5:15 PM,77.0,51.8,41,29.80,10.0,SSE,8.1,25.3,N/A,,Clear,160,2014-04-12 22:15:00
5:35 PM,78.8,51.8,39,29.80,10.0,South,16.1,20.7,N/A,,Clear,180,2014-04-12 22:35:00
5:55 PM,77.0,51.8,41,29.79,10.0,South,13.8,20.7,N/A,,Clear,170,2014-04-12 22:55:00
6:15 PM,78.8,51.8,39,29.79,10.0,SSE,13.8,24.2,N/A,,Clear,160,2014-04-12 23:15:00
6:35 PM,77.0,50.0,39,29.79,10.0,South,12.7,23.0,N/A,,Clear,180,2014-04-12 23:35:00
6:55 PM,75.2,51.8,44,29.79,10.0,SSE,12.7,25.3,N/A,,Clear,160,2014-04-12 23:55:00
7:15 PM,73.4,51.8,47,29.80,10.0,SSE,10.4,27.6,N/A,,Clear,160,2014-04-13 00:15:00
7:35 PM,73.4,51.8,47,29.79,10.0,South,11.5,23.0,N/A,,Clear,170,2014-04-13 00:35:00
7:55 PM,73.4,51.8,47,29.79,10.0,SSE,8.1,24.2,N/A,,Clear,160,2014-04-13 00:55:00
8:15 PM,73.4,51.8,47,29.80,10.0,South,9.2,17.3,N/A,,Clear,170,2014-04-13 01:15:00
8:35 PM,71.6,51.8,50,29.80,10.0,South,13.8,21.9,N/A,,Clear,170,2014-04-13 01:35:00
8:55 PM,71.6,51.8,50,29.81,10.0,South,11.5,18.4,N/A,,Clear,170,2014-04-13 01:55:00
9:15 PM,71.6,51.8,50,29.81,10.0,South,9.2,20.7,N/A,,Clear,170,2014-04-13 02:15:00
9:35 PM,71.6,51.8,50,29.82,10.0,South,8.1,18.4,N/A,,Clear,180,2014-04-13 02:35:00
9:55 PM,71.6,51.8,50,29.81,10.0,South,9.2,21.9,N/A,,Clear,180,2014-04-13 02:55:00
10:15 PM,71.6,51.8,50,29.81,10.0,South,10.4,19.6,N/A,,Clear,170,2014-04-13 03:15:00
10:35 PM,71.6,51.8,50,29.81,10.0,South,11.5,19.6,N/A,,Clear,190,2014-04-13 03:35:00
10:55 PM,71.6,51.8,50,29.80,10.0,South,12.7,26.5,N/A,,Clear,190,2014-04-13 03:55:00
11:15 PM,69.8,51.8,53,29.81,10.0,South,8.1,17.3,N/A,,Clear,190,2014-04-13 04:15:00
11:35 PM,69.8,51.8,53,29.81,10.0,South,8.1,20.7,N/A,,Clear,190,2014-04-13 04:35:00
11:55 PM,69.8,51.8,53,29.81,10.0,South,9.2,-,N/A,,Clear,190,2014-04-13 04:55:00